723  
ASUS44 KHUN 220210  
RWRHUN  
 
WEATHER ROUNDUP FOR THE TENNESSEE VALLEY  
NATIONAL WEATHER SERVICE HUNTSVILLE AL  
900 PM CDT FRI JUL 21 2017  
 
ALZ001>004-220300-  
NORTHWEST ALABAMA  
 
CITY SKY/WX TMP DP RH WIND PRES REMARKS
 
COURTLAND HCN N/A 84 N/A N/A CALM N/A  
RUSSELLVILLE N/A 81 N/A N/A MISG N/A  
SHOALS AIRPORT CLEAR 83 74 74 CALM 30.00R  
SHOALS TVA RES N/A 81 N/A N/A MISG N/A  

 
 
ALZ005>007-016-220300-  
NORTH CENTRAL ALABAMA  
 
CITY SKY/WX TMP DP RH WIND PRES REMARKS
 
CULLMAN AG STN N/A 79 N/A N/A CALM N/A  
DECATUR AP CLEAR 80 75 84 CALM 30.00R  
HUNTSVILLE AP PTCLDY 86 76 71 CALM 30.00R HX 96  
MERIDIANVILLE CLEAR 79 72 78 CALM 30.01S  
REDSTONE ARSN CLEAR 82 77 83 CALM 29.99R HX 90  
VINEMONT AP FAIR 78 74 87 CALM 30.05S  

 
 
ALZ008>010-220300-  
NORTHEAST ALABAMA  
 
CITY SKY/WX TMP DP RH WIND PRES REMARKS
 
ALBERTVILLE CLEAR 82 79 89 CALM 30.02S HX 93  
FORT PAYNE CLEAR 79 72 78 CALM 30.02R  
SCOTTSBORO AP CLEAR 82 77 83 CALM 30.02R HX 91  
SCOTTSBORO HCN N/A 81 N/A N/A MISG N/A  

 
 
TNZ076-096-097-220300-  
SOUTHEASTERN MIDDLE TENNESSEE  
 
CITY SKY/WX TMP DP RH WIND PRES REMARKS
 
TULLAHOMA CLEAR 81 72 74 CALM 30.04S  
WINCHESTER CLEAR 81 75 83 CALM 30.03S  

 
   
..SURROUNDING SITES
 
 
 
CITY SKY/WX TMP DP RH WIND PRES REMARKS
 
ATLANTA CLOUDY 88 71 57 CALM 30.03R HX 94  
ANNISTON CLEAR 80 76 87 CALM 30.01S  
BIRMINGHAM MOCLDY 88 73 61 W5 30.03S HX 95  
CHATTANOOGA MOCLDY 84 73 69 CALM 30.01R HX 90  
CORINTH FAIR 84 79 84 CALM 29.97R HX 96  
DALTON NOT AVBL  
GADSDEN CLEAR 82 79 90 CALM 30.00F HX 92  
GOLDEN TRNGL CLEAR 81 72 74 SW5 N/A  
JACKSON TN CLEAR 83 78 85 S3 29.96R HX 93  
MEMPHIS CLEAR 89 76 65 S3 29.96R HX 100  
NASHVILLE PTCLDY 88 73 61 SW5 29.98S HX 95  
OXFORD MS FAIR 82 73 74 CALM 30.00R  
ROME CLEAR 84 79 85 CALM 30.00R HX 96  
SAVANNAH CLEAR 81 79 94 CALM 29.97R  
SELMER CLEAR 81 77 89 CALM 29.97S  
TUPELO CLEAR 87 72 60 CALM 29.97R HX 93  
TUSCALOOSA CLOUDY 78 77 96 CALM 30.00S  

 
   
..GULF COAST WEATHER
 
 
 
CITY SKY/WX TMP DP RH WIND PRES REMARKS
 
GULFPORT PTCLDY 77 74 90 CALM 30.01S  
PASCAGOULA CLOUDY 79 75 87 CALM 30.01R  
MOBILE MOCLDY 80 73 79 N3 30.03R  
GULF SHORES CLEAR 81 80 95 CALM 30.02R HX 91  
PENSACOLA MOCLDY 79 77 94 NW3 30.02R  
DESTIN CLOUDY 87 72 60 CALM 30.03R HX 93  
PANAMA CITY PTCLDY 80 77 91 CALM 30.04R  
APPALACHICOLA PTCLDY 80 78 94 N7 30.03R  

 
 
 
 
CLICK HERE TO GO TO PREVIOUS BULLETINS.

The Nexlab AL Page
The Nexlab TN Page Main Text Page